Tracking 25378 objects as of 22-Jan-2022
HD Live streaming from Space Station
objects crossing your sky now

STARLINK-2725

Track STARLINK-2725 now!
10-day predictions
STARLINK-2725 is classified as:


NORAD ID: 48681
Int'l Code: 2021-044AV
Perigee: 553.3 km
Apogee: 555.4 km
Inclination: 53.0 °
Period: 95.6 minutes
Semi major axis: 6925 km
RCS: Unknown
Launch date: May 26, 2021
Source: United States (US)
Launch site: AIR FORCE EASTERN TEST RANGE (AFETR)
aabbcc
Your satellite tracking list
Your tracking list is empty




NASA's NSSDC Master Catalog

Two Line Element Set (TLE):
1 48681U 21044AV  22021.58334491 -.00023499  00000-0 -15637-2 0  9995
2 48681  53.0489  11.7823 0001557  71.9378   4.7569 15.06403598 37858
Source of the keplerian elements: AFSPC